Weather in Dolgiye

Russia / Kurgan Oblast     55°27′01″N   67°44′06″E
temp.,
°C
wind,
m/s
gust,
m/s
humid.,
%
clouds,
%
prec.,
mm/h
press.,
hPa
HPBL,
m
14 april, wed
wed1423:00+3sw599851 0.0 1038172
02:00+2sw511957 0.0 1036189
05:00+2sw6139684 0.0 1035238
08:00+4sw61489100 0.0 1034332
11:00+9wsw7127860 0.0 1032434
14:00+13w710725 0.0 1030709
17:00+15w69745 0.0 1029744
20:00+11wsw48875 0.0 1028138
15 april, thu
thu1523:00+10w47895 0.0 102893
02:00+9wsw45905 0.0 102763
05:00+8wsw469151 0.0 102781
08:00+10wsw47825 0.0 1026191
11:00+15wsw57605 0.0 1025486
14:00+17wsw68486 0.0 1023865
17:00+17wsw69465 0.0 1021885
20:00+12sw410625 0.0 1020155
16 april, fri
fri1623:00+9sw410685 0.0 1019163
02:00+8wsw5117049 0.0 1017166
05:00+6wsw497490 0.0 1016135
08:00+9w4974100 0.0 1016233
11:00+12n7774100 0.0 1017827
14:00+5nne81185100 0.0 1020680
17:00+6ne697891 0.1 1021998
20:00+5ne5965100 0.0 1022450
17 april, sat
sat1723:00+2ne48745 0.0 1023223
02:000ene49774 0.0 1023259
05:00−1e36805 0.0 1023186
08:00+1se22631 0.0 1022387
11:00+4w34525 0.0 10201295
14:00+7w5741100 0.0 10182055
17:00+7wnw81044100 0.0 10161943
20:00+2n81179100 0.3 10181025
18 april, sun
sun1823:00+1n6106365 0.3 1019535
02:00−1n4762100 0.0 1019487
05:00−1nw1355100 0.0 1019290
08:000nnw1244100 0.0 1019503
11:00+2sw2340100 0.0 10181427
14:00+3sw3356100 0.3 10181309
17:00−2nne8127474 4.3 1022860
20:00−3nne712530 0.0 1025426